Location: Amarillo Post Office Jordan Station
(35.1907°N, 101.9342°W)
Time: 17:29:27
(UTC+00:00)

Cosmos 2228 - Pass Details

Date: 24 January 2021
Orbit: 589 x 617 km, 82.5° (Epoch: 01 March)

Event Time Altitude Azimuth Distance (km) Brightness Sun altitude
Rises 12:35:00 0° 175° (S) 2,821 6.7 -15.8°
Reaches altitude 10° 12:37:14 10° 171° (S) 1,920 5.9 -15.3°
Maximum altitude 12:41:22 56° 94° (E) 709 3.7 -14.5°
Drops below altitude 10° 12:45:32 10° 16° (NNE) 1,924 5.6 -13.7°
Sets 12:47:45 0° 12° (NNE) 2,828 6.4 -13.3°
